Find Starlink 31369

NORAD ID: 58975 Int'l Des: 2024-031 Owner: SPXS Country: US Constellation: starlink operational
LEOCIRCULAR

实时位置

正在加载3D地球...

关于 Starlink 31369

正在加载描述...

即将过境

Passes for default location (London). Set your location on the main map for personalized predictions.

高度历史

Loading altitude history...

两行轨道根数

1 58975U 24031L 26126.17264520 -.00001661 00000-0 -44015-4 0 9992
2 58975 53.1613 29.7222 0000267 174.6601 185.4403 15.30178401125316
Epoch: May 6, 2026 • Age: 8 hours

当前状态

高度 477.5 km
速度 7.63 km/s
星下点 33.61°N, 125.41°E
发射日期 Feb 15, 2024
运行时间 2.2 years
类型 internet

技术详情

分类 Payload
质量 730.00 kg
干质量 700.00 kg
总质量 730.00 kg
长度 0.30 m
直径 4.10 m
跨度 29.00 m
形状 Box + pan
制造商 SPXS
平台类型 Starlink V2M
阶段状态 In Orbit
所有者/国家 SPXS/US

Most Searched